AA5AW Weather Reports


Display with metric or nautical units.
time (UTC)temp
F
wind
direction
speed
MPH
gust
MPH
rain 1hr
in
rain 24hr
in
rain mn
in
humidity
%
barometer
mb
20260509201515 85 247 2.0 6.0 0.00 0.00 0.00 70 1010.0
20260509200043 85 103 0.0 5.0 0.00 0.00 0.00 71 1010.2
20260509194528 83 241 0.0 5.0 0.00 0.00 0.00 74 1010.5
20260509193009 83 354 1.0 4.0 0.00 0.00 0.00 76 1010.5
20260509191549 84 17 2.0 6.0 0.00 0.00 0.00 76 1010.6
20260509190040 83 296 1.0 6.0 0.00 0.00 0.00 76 1010.7
20260509184601 82 149 2.0 4.0 0.00 0.00 0.00 76 1010.8
20260509184502 82 198 2.0 4.0 0.00 0.00 0.00 79 1010.9
20260509183038 82 318 1.0 5.0 0.00 0.00 0.00 79 1011.0
20260509181509 82 350 1.0 5.0 0.00 0.00 0.00 83 1011.1
20260509180113 81 164 1.0 3.0 0.00 0.00 0.00 81 1011.4
20260509174531 80 12 2.0 5.0 0.00 0.00 0.00 83 1011.5
20260509173025 79 17 1.0 4.0 0.00 0.00 0.00 86 1011.9
20260509171554 78 164 2.0 6.0 0.00 0.00 0.00 86 1011.9
20260509170044 77 83 1.0 4.0 0.00 0.00 0.00 89 1012.0
20260509164505 76 293 0.0 3.0 0.00 0.00 0.00 90 1012.3
20260509163046 76 204 0.0 3.0 0.00 0.00 0.00 91 1012.5
20260509161531 76 193 0.0 5.0 0.00 0.00 0.00 92 1012.4
20260509160058 76 143 1.0 4.0 0.00 0.00 0.00 92 1012.3
20260509154531 76 154 0.0 4.0 0.00 0.24 0.00 94 1012.2
20260509153007 75 256 1.0 3.0 0.00 0.24 0.00 97 1011.6
20260509151549 74 275 1.0 3.0 0.00 0.24 0.00 98 1011.7
20260509150015 73 162 0.0 1.0 0.00 0.37 0.00 98 1011.6
20260509144503 72 142 0.0 2.0 0.00 0.37 0.00 98 1012.0
20260509143043 73 102 0.0 2.0 0.00 0.37 0.00 98 1011.7
20260509141537 72 177 0.0 2.0 0.00 0.37 0.00 98 1011.9
20260509140006 72 183 0.0 1.0 0.00 0.44 0.00 98 1012.0
20260509134540 72 183 0.0 2.0 0.00 0.44 0.00 98 1011.9
20260509133025 71 65 0.0 1.0 0.00 0.44 0.00 98 1012.0
20260509131507 71 65 0.0 1.0 0.00 0.44 0.00 98 1011.8
20260509130041 71 65 0.0 1.0 0.00 0.44 0.00 98 1011.9
20260509124519 71 65 0.0 0.0 0.00 0.44 0.00 98 1011.7
20260509123051 71 65 0.0 3.0 0.00 0.44 0.00 98 1011.4
20260509121544 70 198 0.0 3.0 0.00 0.44 0.00 98 1011.1
20260509120023 70 267 0.0 1.0 0.00 0.44 0.00 98 1011.4
20260509114504 70 267 0.0 2.0 0.00 0.44 0.00 98 1011.5
20260509113049 70 339 0.0 1.0 0.00 0.44 0.00 98 1011.2
20260509111535 70 339 0.0 2.0 0.00 0.44 0.00 98 1011.3
20260509110008 70 294 0.0 1.0 0.00 0.44 0.00 98 1011.3
20260509104559 70 322 0.0 2.0 0.00 0.44 0.00 98 1011.1
20260509103034 70 312 1.0 3.0 0.00 0.44 0.00 98 1010.9
20260509101533 70 82 0.0 2.0 0.00 0.44 0.00 98 1010.4
20260509100055 70 139 0.0 1.0 0.00 0.44 0.00 97 1010.8
20260509094533 70 139 0.0 0.0 0.00 0.44 0.00 97 1010.8
20260509093102 70 139 0.0 1.0 0.00 0.44 0.00 98 1011.0
20260509093001 70 23 0.0 1.0 0.00 0.44 0.00 98 1011.1
20260509091550 70 23 0.0 2.0 0.00 0.44 0.00 97 1011.3
20260509090048 70 43 0.0 2.0 0.00 0.44 0.00 97 1011.0
20260509084519 70 43 0.0 1.0 0.00 0.44 0.00 97 1011.3
20260509083002 70 73 0.0 1.0 0.00 0.44 0.00 97 1011.3
20260509081547 70 73 0.0 0.0 0.00 0.44 0.00 97 1011.4
20260509080006 70 73 0.0 1.0 0.00 0.44 0.00 97 1011.5
20260509074552 70 73 0.0 0.0 0.00 0.44 0.00 97 1011.7
20260509073041 70 73 0.0 2.0 0.00 0.44 0.00 97 1011.8
20260509071516 70 29 0.0 1.0 0.00 0.44 0.00 96 1011.9
20260509070106 70 29 0.0 1.0 0.00 0.44 0.00 96 1011.9
20260509064537 70 29 0.0 2.0 0.00 0.44 0.00 96 1011.8
20260509063016 70 137 0.0 2.0 0.00 0.44 0.00 96 1011.6
20260509061610 70 109 0.0 3.0 0.00 0.44 0.00 96 1011.4
20260509060048 70 114 0.0 2.0 0.00 0.44 0.00 96 1011.7
20260509054556 70 110 0.0 2.0 0.00 0.44 0.00 96 1011.5
20260509053037 70 51 0.0 2.0 0.00 0.44 0.00 96 1011.7
20260509051517 70 62 0.0 2.0 0.00 0.44 0.00 96 1011.6
20260509050050 70 46 0.0 1.0 0.00 0.44 0.00 95 1011.7
20260509044525 70 46 0.0 2.0 0.00 0.44 0.44 95 1011.9
20260509043004 70 28 0.0 2.0 0.00 0.44 0.44 95 1011.9
20260509041535 70 305 0.0 2.0 0.00 0.44 0.44 95 1011.9
20260509040021 69 111 1.0 3.0 0.00 0.44 0.44 96 1011.7
20260509034547 69 60 0.0 1.0 0.00 0.44 0.44 95 1011.5
20260509033033 68 71 0.0 2.0 0.00 0.44 0.44 95 1011.3
20260509031519 69 94 0.0 1.0 0.00 0.44 0.44 94 1011.3
20260509030057 69 99 0.0 2.0 0.00 0.44 0.44 94 1011.2
20260509024547 69 27 1.0 4.0 0.00 0.44 0.44 94 1011.0
20260509023033 69 102 1.0 4.0 0.00 0.44 0.44 94 1010.7
20260509021555 69 231 1.0 4.0 0.00 0.44 0.44 94 1010.6
20260509020049 69 89 1.0 4.0 0.00 0.44 0.44 94 1010.2
20260509014538 69 123 0.0 1.0 0.00 0.44 0.44 94 1010.3
20260509013005 69 123 0.0 0.0 0.00 0.44 0.44 93 1010.3
20260509011531 70 130 0.0 3.0 0.00 0.44 0.44 91 1010.3
20260509010015 71 110 0.0 4.0 0.00 0.44 0.44 89 1010.6
20260509004557 72 113 0.0 2.0 0.00 0.44 0.44 88 1010.6
20260509003044 73 296 0.0 3.0 0.00 0.44 0.44 87 1010.7
20260509001531 74 157 0.0 2.0 0.00 0.44 0.44 87 1011.1
20260509000009 74 75 0.0 1.0 0.00 0.44 0.44 86 1011.2
20260508234538 74 75 0.0 4.0 0.00 0.44 0.44 86 1011.3
20260508233027 74 92 1.0 5.0 0.00 0.44 0.44 85 1011.1
20260508231509 75 142 0.0 4.0 0.00 0.44 0.44 84 1010.9
20260508230041 75 81 1.0 4.0 0.00 0.44 0.44 83 1011.1
20260508224517 75 75 2.0 4.0 0.00 0.44 0.44 83 1011.0
20260508223003 75 70 1.0 5.0 0.00 0.44 0.44 83 1011.1
20260508221547 74 37 1.0 6.0 0.00 0.44 0.44 84 1011.2
20260508220035 74 143 1.0 5.0 0.00 0.44 0.44 83 1011.3
20260508214516 73 95 1.0 3.0 0.00 0.44 0.44 86 1011.3
20260508213049 73 80 1.0 4.0 0.00 0.44 0.44 85 1011.5
20260508211538 73 32 2.0 4.0 0.00 0.44 0.44 85 1011.5
20260508210014 73 88 2.0 6.0 0.00 0.44 0.44 84 1011.7
20260508204547 74 71 0.0 4.0 0.00 0.44 0.44 85 1011.8
20260508203041 73 66 1.0 4.0 0.00 0.44 0.44 84 1012.2